{"data":{"norad_id":67814,"epoch":"2026-09-18T22:28:30.001440Z","epoch_age_seconds":201589,"freshness":"STALE","line1":"1 67814U 26032T   26261.93645835  .00021773  00000+0  67439-3 0  9990","line2":"2 67814  97.2877  88.3335 0001375  83.7859 276.3541 15.33464664 34573","mean_motion":15.33464664,"eccentricity":0.0001375,"inclination_deg":97.2877,"raan_deg":88.3335,"arg_perigee_deg":83.7859,"mean_anomaly_deg":276.3541,"bstar":0.00067439,"rev_number":3457,"period_min":93.905000474142,"perigee_km":464.54367089466,"apogee_km":466.4256668536,"semimajor_km":6843.6216688741,"source":"CELESTRAK","updated_at":"2026-09-20T09:00:43.665430Z"}}